Time,TemperatureF,DewpointF,PressureIn,WindDirection,WindDirectionDegrees,WindSpeedMPH,WindSpeedGustMPH,Humidity,HourlyPrecipIn,Conditions,Clouds,dailyrainin,SoftwareType,DateUTC
2013-03-22 00:13:00,24.1,22.0,29.80,WNW,288,0.0,-999.0,91,-99.99,,,0.04,weatherlink.com 1.10,2013-03-22 04:13:00,
2013-03-22 00:28:00,23.8,21.0,29.80,NW,320,8.0,-999.0,90,-99.99,,,0.04,weatherlink.com 1.10,2013-03-22 04:28:00,
2013-03-22 00:43:00,23.8,21.0,29.80,WNW,298,1.0,-999.0,90,-99.99,,,0.04,weatherlink.com 1.10,2013-03-22 04:43:00,
2013-03-22 00:58:00,23.8,21.0,29.80,West,277,1.0,-999.0,90,-99.99,,,0.04,weatherlink.com 1.10,2013-03-22 04:58:00,
2013-03-22 01:13:00,23.8,21.0,29.80,West,277,4.0,-999.0,90,-99.99,,,0.04,weatherlink.com 1.10,2013-03-22 05:13:00,
2013-03-22 01:28:00,23.9,21.0,29.80,SW,216,0.0,-999.0,90,-99.99,,,0.04,weatherlink.com 1.10,2013-03-22 05:28:00,
2013-03-22 01:43:00,23.9,21.0,29.80,NW,316,5.0,-999.0,90,-99.99,,,0.00,weatherlink.com 1.10,2013-03-22 05:43:00,
2013-03-22 01:58:00,24.1,22.0,29.80,NW,309,0.0,-999.0,90,-99.99,,,0.00,weatherlink.com 1.10,2013-03-22 05:58:00,
2013-03-22 02:28:00,23.9,21.0,29.80,WNW,287,1.0,-999.0,90,-99.99,,,0.00,weatherlink.com 1.10,2013-03-22 06:28:00,
2013-03-22 02:43:00,23.6,21.0,29.81,West,277,0.0,-999.0,90,-99.99,,,0.00,weatherlink.com 1.10,2013-03-22 06:43:00,
2013-03-22 02:58:00,23.3,21.0,29.80,WNW,301,2.0,-999.0,90,-99.99,,,0.00,weatherlink.com 1.10,2013-03-22 06:58:00,
2013-03-22 03:13:00,23.3,21.0,29.80,West,270,0.0,-999.0,90,-99.99,,,0.00,weatherlink.com 1.10,2013-03-22 07:13:00,
2013-03-22 03:28:00,23.3,21.0,29.80,NNW,336,1.0,-999.0,90,-99.99,,,0.00,weatherlink.com 1.10,2013-03-22 07:28:00,
2013-03-22 03:43:00,23.3,21.0,29.80,SSW,212,0.0,-999.0,90,-99.99,,,0.00,weatherlink.com 1.10,2013-03-22 07:43:00,
2013-03-22 03:58:00,23.3,21.0,29.80,WNW,285,0.0,-999.0,90,-99.99,,,0.00,weatherlink.com 1.10,2013-03-22 07:58:00,
2013-03-22 04:13:00,23.2,21.0,29.80,SW,222,2.0,-999.0,90,-99.99,,,0.00,weatherlink.com 1.10,2013-03-22 08:13:00,
2013-03-22 04:28:00,23.0,21.0,29.80,WNW,285,0.0,-999.0,90,-99.99,,,0.00,weatherlink.com 1.10,2013-03-22 08:28:00,
2013-03-22 04:43:00,22.9,20.0,29.80,SSW,203,2.0,-999.0,90,-99.99,,,0.00,weatherlink.com 1.10,2013-03-22 08:43:00,
2013-03-22 04:58:00,22.9,20.0,29.80,WNW,302,0.0,-999.0,90,-99.99,,,0.00,weatherlink.com 1.10,2013-03-22 08:58:00,
2013-03-22 05:13:00,22.9,20.0,29.80,WSW,246,0.0,-999.0,89,-99.99,,,0.00,weatherlink.com 1.10,2013-03-22 09:13:00,
2013-03-22 05:28:00,22.9,20.0,29.80,NW,312,1.0,-999.0,89,-99.99,,,0.00,weatherlink.com 1.10,2013-03-22 09:28:00,
2013-03-22 05:43:00,22.7,20.0,29.81,SW,230,1.0,-999.0,89,-99.99,,,0.00,weatherlink.com 1.10,2013-03-22 09:43:00,
2013-03-22 05:58:00,22.7,20.0,29.81,WNW,288,3.0,-999.0,89,-99.99,,,0.00,weatherlink.com 1.10,2013-03-22 09:58:00,
2013-03-22 06:13:00,22.9,20.0,29.81,West,272,5.0,-999.0,89,-99.99,,,0.00,weatherlink.com 1.10,2013-03-22 10:13:00,
2013-03-22 06:28:00,22.9,20.0,29.82,NW,318,4.0,-999.0,89,-99.99,,,0.00,weatherlink.com 1.10,2013-03-22 10:28:00,
2013-03-22 06:43:00,22.9,20.0,29.82,WNW,296,0.0,-999.0,89,-99.99,,,0.00,weatherlink.com 1.10,2013-03-22 10:43:00,
2013-03-22 06:58:00,22.9,20.0,29.83,West,264,2.0,-999.0,89,-99.99,,,0.00,weatherlink.com 1.10,2013-03-22 10:58:00,
2013-03-22 07:13:00,22.9,20.0,29.84,West,272,0.0,-999.0,89,-99.99,,,0.00,weatherlink.com 1.10,2013-03-22 11:13:00,
2013-03-22 07:28:00,22.9,20.0,29.84,NW,308,1.0,-999.0,89,-99.99,,,0.00,weatherlink.com 1.10,2013-03-22 11:28:00,
2013-03-22 07:43:00,22.9,20.0,29.85,West,280,0.0,-999.0,89,-99.99,,,0.00,weatherlink.com 1.10,2013-03-22 11:43:00,
2013-03-22 07:59:00,22.9,20.0,29.86,SW,229,0.0,-999.0,89,-99.99,,,0.00,weatherlink.com 1.10,2013-03-22 11:59:00,
2013-03-22 08:13:00,22.9,20.0,29.86,WNW,298,0.0,-999.0,89,-99.99,,,0.00,weatherlink.com 1.10,2013-03-22 12:13:00,
2013-03-22 08:28:00,23.2,21.0,29.86,NW,313,0.0,-999.0,89,-99.99,,,0.00,weatherlink.com 1.10,2013-03-22 12:28:00,
2013-03-22 08:43:00,23.3,21.0,29.86,WNW,299,1.0,-999.0,89,-99.99,,,0.00,weatherlink.com 1.10,2013-03-22 12:43:00,
2013-03-22 08:58:00,23.6,21.0,29.86,WNW,289,0.0,-999.0,89,-99.99,,,0.00,weatherlink.com 1.10,2013-03-22 12:58:00,
2013-03-22 09:14:00,23.9,21.0,29.86,NW,306,0.0,-999.0,89,-99.99,,,0.00,weatherlink.com 1.10,2013-03-22 13:14:00,
2013-03-22 09:28:00,24.4,22.0,29.86,West,265,1.0,-999.0,89,-99.99,,,0.00,weatherlink.com 1.10,2013-03-22 13:28:00,
2013-03-22 09:43:00,25.1,22.0,29.86,SW,219,5.0,-999.0,89,-99.99,,,0.00,weatherlink.com 1.10,2013-03-22 13:43:00,
2013-03-22 09:58:00,25.8,23.0,29.86,WSW,243,0.0,-999.0,89,-99.99,,,0.00,weatherlink.com 1.10,2013-03-22 13:58:00,
2013-03-22 10:13:00,25.7,22.0,29.87,West,261,2.0,-999.0,87,-99.99,,,0.00,weatherlink.com 1.10,2013-03-22 14:13:00,
2013-03-22 10:28:00,25.7,22.0,29.87,NW,309,0.0,-999.0,87,-99.99,,,0.00,weatherlink.com 1.10,2013-03-22 14:28:00,
2013-03-22 10:43:00,26.1,22.0,29.87,WNW,284,6.0,-999.0,85,-99.99,,,0.00,weatherlink.com 1.10,2013-03-22 14:43:00,
2013-03-22 10:58:00,25.8,22.0,29.88,South,189,3.0,-999.0,84,-99.99,,,0.00,weatherlink.com 1.10,2013-03-22 14:58:00,
2013-03-22 11:14:00,25.7,21.0,29.87,SW,224,2.0,-999.0,83,-99.99,,,0.00,weatherlink.com 1.10,2013-03-22 15:14:00,
2013-03-22 11:29:00,25.6,21.0,29.88,NNW,342,6.0,-999.0,82,-99.99,,,0.00,weatherlink.com 1.10,2013-03-22 15:29:00,
2013-03-22 11:44:00,25.4,20.0,29.88,NW,322,5.0,-999.0,81,-99.99,,,0.00,weatherlink.com 1.10,2013-03-22 15:44:00,
2013-03-22 11:59:00,25.3,20.0,29.89,NW,309,3.0,-999.0,81,-99.99,,,0.00,weatherlink.com 1.10,2013-03-22 15:59:00,
2013-03-22 12:14:00,25.6,21.0,29.89,West,270,2.0,-999.0,81,-99.99,,,0.00,weatherlink.com 1.10,2013-03-22 16:14:00,
2013-03-22 12:29:00,26.4,21.0,29.89,WSW,257,3.0,-999.0,79,-99.99,,,0.00,weatherlink.com 1.10,2013-03-22 16:29:00,
2013-03-22 12:44:00,27.0,21.0,29.89,WSW,257,0.0,-999.0,78,-99.99,,,0.00,weatherlink.com 1.10,2013-03-22 16:44:00,
2013-03-22 12:59:00,26.6,20.0,29.89,WNW,289,1.0,-999.0,76,-99.99,,,0.00,weatherlink.com 1.10,2013-03-22 16:59:00,
2013-03-22 13:14:00,27.2,21.0,29.89,SW,224,2.0,-999.0,77,-99.99,,,0.00,weatherlink.com 1.10,2013-03-22 17:14:00,
2013-03-22 13:29:00,27.2,20.0,29.89,NW,322,11.0,-999.0,74,-99.99,,,0.00,weatherlink.com 1.10,2013-03-22 17:29:00,
2013-03-22 13:44:00,26.7,19.0,29.89,WNW,289,2.0,-999.0,73,-99.99,,,0.00,weatherlink.com 1.10,2013-03-22 17:44:00,
2013-03-22 13:59:00,26.7,19.0,29.89,WSW,246,2.0,-999.0,73,-99.99,,,0.00,weatherlink.com 1.10,2013-03-22 17:59:00,
2013-03-22 14:14:00,27.0,19.0,29.89,NW,315,2.0,-999.0,72,-99.99,,,0.00,weatherlink.com 1.10,2013-03-22 18:14:00,
2013-03-22 14:29:00,27.0,19.0,29.89,WNW,287,2.0,-999.0,73,-99.99,,,0.00,weatherlink.com 1.10,2013-03-22 18:29:00,
2013-03-22 14:44:00,27.0,19.0,29.89,NW,313,4.0,-999.0,73,-99.99,,,0.00,weatherlink.com 1.10,2013-03-22 18:44:00,
2013-03-22 14:59:00,26.7,19.0,29.90,West,261,7.0,-999.0,73,-99.99,,,0.00,weatherlink.com 1.10,2013-03-22 18:59:00,
2013-03-22 15:14:00,26.4,19.0,29.90,SW,216,8.0,-999.0,73,-99.99,,,0.00,weatherlink.com 1.10,2013-03-22 19:14:00,
2013-03-22 15:29:00,26.1,19.0,29.91,WNW,292,1.0,-999.0,75,-99.99,,,0.00,weatherlink.com 1.10,2013-03-22 19:29:00,
2013-03-22 15:44:00,26.1,19.0,29.91,SW,222,4.0,-999.0,75,-99.99,,,0.00,weatherlink.com 1.10,2013-03-22 19:44:00,
2013-03-22 15:59:00,26.4,20.0,29.91,NW,313,6.0,-999.0,75,-99.99,,,0.00,weatherlink.com 1.10,2013-03-22 19:59:00,
2013-03-22 16:14:00,26.7,20.0,29.91,WNW,299,2.0,-999.0,76,-99.99,,,0.00,weatherlink.com 1.10,2013-03-22 20:14:00,
2013-03-22 16:29:00,26.9,20.0,29.91,SW,220,1.0,-999.0,75,-99.99,,,0.00,weatherlink.com 1.10,2013-03-22 20:29:00,
2013-03-22 16:44:00,26.7,20.0,29.92,WSW,257,0.0,-999.0,76,-99.99,,,0.00,weatherlink.com 1.10,2013-03-22 20:44:00,
2013-03-22 16:59:00,26.7,20.0,29.92,WSW,240,8.0,-999.0,76,-99.99,,,0.00,weatherlink.com 1.10,2013-03-22 20:59:00,
2013-03-22 17:14:00,26.7,20.0,29.92,WNW,296,4.0,-999.0,75,-99.99,,,0.00,weatherlink.com 1.10,2013-03-22 21:14:00,
2013-03-22 17:29:00,26.9,20.0,29.92,West,280,1.0,-999.0,75,-99.99,,,0.00,weatherlink.com 1.10,2013-03-22 21:29:00,
2013-03-22 17:44:00,26.9,20.0,29.92,WSW,256,1.0,-999.0,74,-99.99,,,0.00,weatherlink.com 1.10,2013-03-22 21:44:00,
2013-03-22 17:59:00,26.6,19.0,29.93,SW,220,1.0,-999.0,74,-99.99,,,0.00,weatherlink.com 1.10,2013-03-22 21:59:00,
2013-03-22 18:14:00,26.4,19.0,29.93,WSW,237,5.0,-999.0,74,-99.99,,,0.00,weatherlink.com 1.10,2013-03-22 22:14:00,
2013-03-22 18:29:00,26.3,19.0,29.93,SSW,212,0.0,-999.0,74,-99.99,,,0.00,weatherlink.com 1.10,2013-03-22 22:29:00,
2013-03-22 18:44:00,26.3,19.0,29.93,SW,227,0.0,-999.0,74,-99.99,,,0.00,weatherlink.com 1.10,2013-03-22 22:44:00,
2013-03-22 18:59:00,26.4,19.0,29.94,SW,230,2.0,-999.0,74,-99.99,,,0.00,weatherlink.com 1.10,2013-03-22 22:59:00,
2013-03-22 19:14:00,26.4,19.0,29.94,WSW,256,0.0,-999.0,74,-99.99,,,0.00,weatherlink.com 1.10,2013-03-22 23:14:00,
2013-03-22 19:29:00,26.3,19.0,29.94,West,267,0.0,-999.0,73,-99.99,,,0.00,weatherlink.com 1.10,2013-03-22 23:29:00,
2013-03-22 19:44:00,26.1,19.0,29.94,WSW,256,0.0,-999.0,73,-99.99,,,0.00,weatherlink.com 1.10,2013-03-22 23:44:00,
2013-03-22 19:59:00,26.0,19.0,29.95,WSW,256,0.0,-999.0,74,-99.99,,,0.00,weatherlink.com 1.10,2013-03-22 23:59:00,
2013-03-22 20:14:00,25.8,19.0,29.95,WSW,256,0.0,-999.0,75,-99.99,,,0.00,weatherlink.com 1.10,2013-03-23 00:14:00,
2013-03-22 20:29:00,25.7,19.0,29.95,WSW,256,0.0,-999.0,75,-99.99,,,0.00,weatherlink.com 1.10,2013-03-23 00:29:00,
2013-03-22 20:44:00,25.6,19.0,29.95,WSW,256,0.0,-999.0,76,-99.99,,,0.00,weatherlink.com 1.10,2013-03-23 00:44:00,
2013-03-22 20:59:00,25.6,19.0,29.95,WSW,256,0.0,-999.0,76,-99.99,,,0.00,weatherlink.com 1.10,2013-03-23 00:59:00,
2013-03-22 21:14:00,25.6,19.0,29.96,WSW,256,0.0,-999.0,76,-99.99,,,0.00,weatherlink.com 1.10,2013-03-23 01:14:00,
2013-03-22 21:29:00,25.7,19.0,29.95,WSW,256,0.0,-999.0,76,-99.99,,,0.00,weatherlink.com 1.10,2013-03-23 01:29:00,
2013-03-22 21:44:00,25.7,19.0,29.95,WSW,256,0.0,-999.0,75,-99.99,,,0.00,weatherlink.com 1.10,2013-03-23 01:44:00,
2013-03-22 21:59:00,25.8,19.0,29.95,WSW,256,0.0,-999.0,76,-99.99,,,0.00,weatherlink.com 1.10,2013-03-23 01:59:00,
2013-03-22 22:14:00,25.8,19.0,29.95,WSW,256,0.0,-999.0,75,-99.99,,,0.00,weatherlink.com 1.10,2013-03-23 02:14:00,
2013-03-22 22:29:00,25.7,19.0,29.96,WSW,256,0.0,-999.0,76,-99.99,,,0.00,weatherlink.com 1.10,2013-03-23 02:29:00,
2013-03-22 22:44:00,25.7,19.0,29.96,WSW,256,0.0,-999.0,75,-99.99,,,0.00,weatherlink.com 1.10,2013-03-23 02:44:00,
2013-03-22 22:59:00,25.6,19.0,29.96,WSW,256,0.0,-999.0,75,-99.99,,,0.00,weatherlink.com 1.10,2013-03-23 02:59:00,
2013-03-22 23:14:00,25.7,19.0,29.95,WSW,256,0.0,-999.0,77,-99.99,,,0.00,weatherlink.com 1.10,2013-03-23 03:14:00,
2013-03-22 23:29:00,25.6,19.0,29.95,WSW,256,0.0,-999.0,77,-99.99,,,0.00,weatherlink.com 1.10,2013-03-23 03:29:00,
2013-03-22 23:44:00,25.4,19.0,29.95,WSW,256,0.0,-999.0,78,-99.99,,,0.00,weatherlink.com 1.10,2013-03-23 03:44:00,
2013-03-22 23:59:00,25.3,19.0,29.95,WSW,256,0.0,-999.0,78,-99.99,,,0.00,weatherlink.com 1.10,2013-03-23 03:59:00,